GFSNW_sfc_thetae_303.txt.gz
Theta_e
305 304 304 305 305 305 301 293 284 297 297 285 284 280 280 283 282 284 281 281 279 277 277 276 276 275 278 282 282 276 279 275 273 277 283 286 287 287 287 282 279 283 283 281
305 304 304 304 304 303 297 287 288 297 295 278 279 282 281 282 281 281 280 278 280 281 277 274 277 278 283 283 282 278 279 276 270 276 282 281 279 278 282 288 287 282 281 280
305 304 304 304 304 303 298 290 283 287 289 288 281 279 279 279 284 281 281 280 281 279 276 279 276 277 281 284 282 284 282 276 273 269 272 276 273 275 280 282 281 282 283 280
305 304 304 304 303 303 298 290 284 285 280 281 281 282 280 278 277 281 282 279 279 277 274 276 276 278 279 282 284 281 279 273 275 276 276 274 272 271 272 275 274 279 282 279
304 304 304 304 303 302 295 287 284 287 284 284 282 282 279 278 279 280 278 277 279 279 276 277 274 277 279 277 281 279 280 274 276 275 274 273 269 271 271 270 269 274 276 274
304 303 303 302 302 301 293 293 293 287 283 282 281 281 280 279 281 282 282 281 279 278 280 282 283 283 283 281 279 277 276 275 273 270 274 276 268 267 269 267 267 268 266 269
304 303 302 302 302 301 298 294 291 284 279 281 281 282 282 280 281 279 282 283 280 283 287 287 285 284 283 282 282 280 274 274 276 273 274 266 267 271 272 268 267 267 268 269
303 303 302 301 302 301 299 298 291 286 279 282 282 282 281 282 283 281 281 283 285 287 285 279 276 277 277 278 280 278 279 275 273 272 269 268 269 268 266 266 266 267 266 268
303 303 302 302 301 301 299 297 298 290 282 282 284 282 282 279 280 281 282 286 288 286 282 278 272 270 272 272 275 279 277 278 274 274 269 265 265 268 272 271 266 268 268 267
303 303 303 302 301 300 298 295 298 291 283 286 286 281 281 284 281 279 282 282 282 285 279 275 273 272 276 271 269 268 270 269 269 270 269 266 268 270 272 266 264 268 268 268
304 304 303 301 301 301 298 296 298 292 285 287 289 288 284 283 282 277 282 281 281 280 276 276 275 274 275 273 269 266 267 265 267 269 267 264 269 270 265 266 268 269 269 269
304 304 303 301 301 300 299 293 298 297 289 288 292 292 291 289 287 283 284 281 281 282 278 278 277 275 276 273 270 271 268 265 266 266 266 269 270 269 270 270 268 269 268 269
304 303 302 301 301 300 298 295 296 294 288 287 287 286 289 291 290 292 281 283 284 282 284 280 279 275 276 272 271 270 269 270 268 267 269 268 270 273 272 270 269 270 270 270
304 303 301 301 300 298 298 294 297 294 288 280 283 289 287 289 290 289 289 286 286 285 284 279 279 276 275 272 270 269 268 269 267 268 269 269 271 271 270 269 270 269 270 270
303 302 301 301 299 298 297 296 295 294 287 281 282 288 288 287 286 284 285 285 283 282 281 280 276 276 273 271 270 267 268 265 265 265 268 267 268 270 270 268 268 268 268 269
302 301 300 299 297 297 293 287 294 296 293 284 277 287 283 283 283 283 283 285 284 282 279 276 275 275 274 270 266 267 268 269 269 266 269 268 269 270 270 267 268 268 269 269
300 300 298 297 296 297 289 286 290 295 295 285 279 280 282 280 280 282 282 283 282 280 277 274 273 271 273 269 264 266 268 268 269 269 268 266 268 266 267 268 268 269 269 270
300 299 296 294 297 295 290 290 290 294 289 286 277 277 279 278 278 278 280 279 279 275 274 274 271 270 269 262 265 267 268 268 268 268 268 267 267 267 267 267 267 266 266 267
298 295 293 293 289 287 287 291 290 287 284 279 277 273 273 278 278 277 278 277 274 274 271 269 270 266 260 263 264 265 266 265 265 267 267 267 266 266 266 265 265 264 265 266
294 291 286 284 286 290 288 286 283 280 277 276 273 271 273 274 274 274 272 274 272 269 266 270 265 262 266 266 267 267 267 267 267 264 264 265 264 264 264 263 265 265 265 266
289 285 282 288 287 285 281 277 276 274 273 273 271 269 269 273 268 269 271 268 270 267 265 266 263 261 263 266 267 268 268 268 267 267 267 266 266 265 265 264 265 265 266 266
289 287 288 285 281 278 275 272 272 273 270 271 270 270 269 269 270 267 270 267 269 263 269 264 259 262 265 265 266 267 268 268 267 268 267 267 267 267 266 266 265 265 266 267
287 283 279 277 277 274 273 269 273 272 270 268 268 267 266 269 269 267 266 265 263 268 263 259 260 263 264 265 265 266 267 268 267 267 267 267 267 267 267 266 266 266 266 267
281 277 273 274 274 272 271 272 271 268 269 267 265 266 265 266 265 266 263 265 266 261 258 258 261 262 263 264 265 265 265 266 266 267 267 266 266 266 267 267 267 267 266 267
278 278 272 272 270 270 268 269 270 266 265 265 266 265 264 265 263 264 264 262 258 258 257 260 263 263 263 263 264 264 264 265 266 267 266 266 266 266 267 267 267 267 267 267
276 272 273 272 273 270 270 268 267 266 266 265 265 264 264 261 262 261 258 259 255 258 260 263 263 262 263 262 263 264 265 265 265 266 266 267 266 265 266 268 268 267 267 266
272 269 270 271 269 267 266 266 265 267 267 264 264 261 259 263 260 258 259 256 259 260 262 263 263 262 262 262 263 263 264 265 265 265 266 267 267 267 267 266 268 268 268 267

GFSNW_sfc_thetae_309.txt.gz
Theta_e
305 305 305 304 305 305 299 287 276 290 290 278 277 273 275 283 280 281 279 278 276 274 274 272 272 273 277 282 281 276 279 273 268 273 280 281 276 272 276 278 277 277 274 269
306 305 305 303 304 305 295 283 281 291 286 271 274 277 279 280 279 278 278 277 279 279 273 269 273 274 280 281 280 277 278 274 269 270 274 276 273 270 271 274 281 277 272 269
307 305 305 304 303 304 295 281 274 281 281 280 274 271 276 277 282 279 279 278 278 275 273 275 270 272 278 280 281 285 279 275 272 265 267 270 266 268 268 275 278 274 270 267
308 306 305 304 304 303 290 280 275 280 273 277 277 276 278 276 274 279 279 275 277 274 268 272 271 274 275 278 281 278 274 271 272 271 271 270 267 267 266 266 268 269 266 263
308 307 305 304 303 302 287 276 282 279 279 278 275 276 274 277 277 275 275 275 277 275 268 273 271 274 274 273 275 270 275 271 274 270 271 270 266 266 267 265 264 265 269 266
308 307 306 305 303 300 289 287 290 284 278 276 273 274 277 278 278 279 280 279 276 275 276 279 279 279 277 275 273 271 266 270 269 269 271 272 265 263 266 264 263 265 261 264
308 308 306 305 303 301 295 292 289 282 273 277 277 278 279 278 279 277 279 279 275 279 283 282 281 278 271 274 273 273 267 266 271 269 269 260 265 269 268 263 264 265 265 266
307 307 307 305 304 302 296 295 290 283 276 279 278 278 277 278 280 277 278 279 281 282 279 275 271 270 271 273 275 271 265 265 266 260 257 261 265 266 264 263 261 265 264 265
307 307 307 305 305 303 298 295 293 287 280 274 279 277 278 274 273 275 278 282 283 279 277 273 261 262 266 266 269 274 273 266 263 262 258 255 262 264 267 269 261 265 265 265
307 307 307 307 305 304 299 295 294 290 281 282 280 278 278 282 277 274 276 277 278 279 274 270 266 264 272 263 261 261 263 261 258 259 258 259 260 265 266 259 261 266 265 265
307 307 307 307 305 303 299 294 294 289 284 284 284 284 282 281 280 274 277 275 275 275 268 270 268 266 265 267 263 257 257 256 256 257 254 257 266 266 258 259 265 265 266 265
307 307 307 307 304 303 300 289 292 293 287 284 287 288 288 287 287 283 282 276 276 273 268 267 265 266 263 267 263 264 261 258 259 259 258 261 261 263 265 266 264 266 266 266
307 307 308 305 303 301 298 287 289 290 286 281 283 281 285 288 287 287 279 278 279 277 277 272 270 265 273 265 265 265 264 265 265 263 263 265 267 266 266 264 264 266 267 267
307 307 305 303 302 300 297 288 289 289 284 273 277 286 282 285 287 286 285 284 280 278 276 276 270 269 274 268 267 265 264 266 264 264 265 267 266 265 265 265 266 266 267 267
306 304 302 302 300 298 292 290 289 289 283 270 275 282 282 283 282 280 280 279 278 275 268 269 271 273 271 267 265 261 265 263 261 262 265 264 264 265 267 265 264 266 266 265
302 302 301 299 297 295 289 283 289 291 291 282 274 279 278 278 278 278 278 279 278 280 269 269 271 273 270 266 260 264 266 267 267 265 267 266 267 267 267 265 265 265 265 265
301 300 298 295 296 290 285 284 287 291 288 283 273 274 278 277 277 276 276 277 273 272 271 270 269 268 267 262 258 263 265 266 268 267 266 264 266 264 266 266 265 265 264 265
299 296 294 297 297 293 288 287 291 288 285 283 269 268 275 276 272 269 270 268 272 268 267 268 267 266 263 257 262 264 265 266 266 266 266 266 267 266 265 266 265 263 263 262
297 293 294 290 285 282 284 291 291 286 281 270 266 260 261 272 269 269 269 265 263 270 262 266 265 259 256 260 262 263 264 264 264 265 266 266 264 264 264 265 264 263 263 263
294 287 282 275 284 291 288 283 278 271 268 268 263 262 262 266 263 261 261 261 260 260 262 265 257 258 262 263 263 264 264 265 265 263 262 263 263 263 263 263 264 264 264 264
283 274 276 282 289 281 275 264 264 261 261 263 262 261 260 265 257 255 257 255 255 260 262 261 256 256 259 262 263 263 264 265 265 266 266 265 265 264 263 264 264 264 264 264
284 283 283 279 271 266 265 257 262 261 260 263 259 261 261 260 259 258 260 257 263 257 267 259 254 258 261 261 261 262 263 263 263 265 265 265 265 265 265 265 264 265 265 266
282 273 267 269 266 261 259 259 259 260 261 258 259 259 257 259 261 256 258 259 258 267 258 255 256 260 260 261 261 261 262 262 263 263 264 265 265 266 265 265 265 265 265 265
270 266 263 260 257 261 261 261 262 264 255 260 260 254 255 254 258 260 257 264 262 257 253 253 257 259 259 260 260 260 259 260 260 262 263 263 264 264 265 266 266 265 264 265
265 265 263 260 264 264 261 261 258 259 254 257 255 256 256 257 258 262 260 256 253 254 252 256 259 260 259 259 259 259 259 259 259 261 261 262 263 264 264 265 266 266 266 265
263 261 259 264 260 256 257 256 254 257 261 260 258 256 256 258 256 253 252 251 249 252 256 259 259 259 259 260 260 260 260 260 261 262 262 263 263 263 264 265 266 266 266 265
260 260 262 261 260 257 256 256 259 262 259 256 256 253 254 259 254 252 254 250 254 257 258 259 260 260 259 260 260 260 261 261 260 261 262 262 264 263 263 263 265 266 267 265

GFSNW_sfc_thetae_312.txt.gz
Theta_e
309 308 307 306 305 306 298 287 276 288 288 278 277 273 275 283 279 281 279 277 276 274 273 271 271 272 274 279 278 275 278 273 269 273 278 277 272 268 272 275 277 277 271 265
309 308 307 306 305 304 292 285 281 289 285 271 273 276 278 280 279 279 278 276 278 278 273 266 272 273 278 279 277 276 276 271 268 268 274 273 269 268 269 271 274 274 270 265
309 309 307 306 305 304 290 279 274 280 279 279 273 273 275 276 281 279 279 278 278 274 272 274 268 271 277 279 278 284 279 273 269 263 264 268 264 266 268 273 273 271 266 264
308 308 308 306 304 302 287 278 274 279 273 277 276 274 276 275 274 278 278 275 276 273 270 270 271 274 275 277 280 276 274 269 270 270 270 268 266 265 264 264 266 267 265 263
307 308 308 307 304 301 286 277 280 280 277 277 275 275 273 276 276 274 274 274 276 273 267 272 270 273 274 273 274 268 271 269 273 268 271 269 264 265 264 263 263 264 266 264
308 308 307 308 304 299 291 290 291 286 277 275 273 273 276 276 278 279 279 277 274 274 276 278 278 278 276 273 272 269 262 264 266 267 271 270 262 263 264 262 262 263 259 263
308 308 308 308 306 300 295 293 290 280 272 276 277 278 278 277 277 277 280 278 275 279 282 280 279 275 270 271 270 270 265 260 269 264 265 256 264 268 266 262 263 264 264 265
308 308 308 308 307 303 296 295 289 283 275 278 278 278 277 277 277 276 277 278 279 280 277 274 270 269 271 272 272 269 263 262 264 260 256 260 264 265 264 263 260 265 263 265
308 308 308 308 308 305 299 296 295 288 276 274 279 278 276 274 272 274 277 281 281 279 276 272 261 262 264 266 269 272 272 264 262 260 256 253 258 262 266 267 261 265 265 264
308 308 308 308 308 304 300 295 296 290 277 280 279 275 278 278 277 273 275 277 277 278 272 268 265 263 270 262 260 260 262 260 256 255 254 258 260 262 264 258 258 264 265 265
308 308 308 307 306 303 300 295 296 289 280 281 283 283 280 280 281 276 276 273 274 273 266 267 267 264 263 265 264 257 257 255 255 254 250 255 266 264 258 258 261 264 264 264
307 307 307 307 304 302 299 292 292 291 287 282 286 287 288 286 284 282 281 274 275 273 267 265 263 265 259 261 264 264 259 258 256 258 256 260 263 260 260 263 263 265 264 266
307 307 306 304 303 302 299 291 287 290 285 280 280 280 284 287 285 289 280 279 279 277 275 268 268 264 270 263 266 265 264 264 264 263 263 265 263 266 266 262 261 264 266 265
306 305 303 303 302 301 298 287 288 290 284 276 276 284 282 285 286 285 284 284 280 277 273 268 265 266 273 267 265 263 264 265 263 263 265 266 266 265 264 265 265 265 266 266
304 303 302 301 300 297 291 288 290 292 281 268 274 280 281 281 280 279 280 279 277 275 268 270 267 272 270 267 264 260 264 262 260 260 265 264 264 266 266 264 264 265 265 264
302 301 300 298 296 295 287 285 290 289 290 282 270 279 278 277 277 278 278 279 277 277 270 267 271 272 270 262 258 263 265 266 266 263 266 266 267 267 268 266 265 265 263 264
300 299 296 297 296 289 282 280 287 290 286 281 270 268 276 276 276 275 274 275 272 271 268 269 268 265 265 261 256 262 264 266 266 266 265 264 266 264 266 266 266 266 264 264
298 295 295 297 295 293 286 285 290 287 284 282 266 265 269 274 271 268 268 267 269 269 267 269 264 263 262 256 260 263 264 265 265 265 266 266 266 266 266 266 266 264 264 264
296 293 295 287 283 280 281 291 290 282 278 266 263 260 260 270 267 268 266 263 262 267 264 264 263 258 255 258 260 260 262 262 262 265 265 265 264 264 265 265 264 263 263 263
293 286 281 272 281 291 288 279 272 269 264 264 261 259 260 265 262 260 258 255 258 258 263 263 257 257 260 261 262 262 262 262 263 261 261 263 262 263 263 263 264 264 263 263
281 273 270 281 287 279 270 262 263 259 258 262 260 260 259 264 257 254 254 254 256 259 262 258 255 254 258 261 261 261 262 262 262 263 264 264 264 263 263 263 264 265 264 264
282 282 281 276 268 264 263 253 259 259 257 258 255 259 259 260 262 256 258 257 263 257 264 256 251 257 259 259 260 260 261 261 261 262 262 263 264 264 264 264 264 265 265 265
280 271 266 267 261 258 254 252 255 256 259 254 259 257 255 260 260 256 257 258 258 265 254 252 254 258 258 258 259 259 260 260 260 260 262 262 263 264 264 264 265 265 265 265
270 265 260 257 254 256 258 258 258 262 255 260 259 253 254 257 259 260 257 261 259 253 248 250 255 257 258 258 259 258 258 259 259 260 261 261 262 262 264 264 265 265 265 265
265 266 259 257 261 258 254 253 254 256 252 255 252 254 256 256 257 258 257 252 248 250 249 252 256 257 258 258 258 258 258 259 259 260 260 261 262 262 263 264 265 265 266 266
263 260 259 263 257 253 253 251 251 254 259 256 255 253 253 255 250 249 248 247 246 249 254 257 254 255 257 257 258 258 259 259 259 259 260 261 261 262 262 264 264 264 265 265
261 258 261 257 254 252 253 254 256 257 255 251 250 249 249 253 248 245 247 245 249 254 256 258 256 257 257 257 259 258 259 259 258 258 259 260 262 263 262 262 264 264 265 264

GFSNW_sfc_thetae_315.txt.gz
Theta_e
308 308 309 308 307 307 296 283 276 288 287 278 276 272 274 282 279 280 278 277 275 273 274 271 269 269 274 279 277 273 276 274 269 272 275 274 270 266 269 269 272 273 268 263
308 308 308 309 307 305 289 280 281 287 285 271 272 275 277 279 279 278 277 276 278 276 273 268 270 272 278 278 275 276 276 271 266 265 270 271 267 267 267 270 271 267 267 262
308 308 308 308 306 305 286 277 274 280 279 278 272 274 274 275 281 279 279 277 278 275 271 273 268 269 276 278 277 284 278 272 267 263 262 266 263 264 266 270 268 266 264 262
309 309 308 308 305 303 288 278 275 279 274 276 273 274 275 274 274 278 278 275 275 273 267 269 269 273 274 277 279 273 270 268 269 268 268 267 264 263 262 262 264 265 263 260
309 309 308 308 306 299 288 282 279 277 279 277 274 274 272 275 275 275 273 273 276 272 266 270 270 273 272 271 273 265 268 268 270 267 270 268 263 264 263 262 262 263 265 262
309 309 308 308 306 299 290 290 291 285 277 274 272 273 274 276 278 278 279 277 274 273 275 277 277 277 275 270 268 268 261 262 264 265 270 270 263 261 262 261 261 262 259 262
309 309 308 308 308 301 296 293 290 282 273 275 277 277 278 276 277 276 278 277 274 278 281 279 277 274 268 269 268 268 264 258 266 259 258 255 261 267 264 261 262 263 263 264
309 309 308 308 308 307 296 295 289 284 274 278 278 276 277 276 276 275 277 278 279 279 276 273 269 268 269 271 271 266 260 261 262 256 252 256 262 262 261 260 259 263 262 264
308 308 308 308 308 308 298 296 294 287 278 274 278 275 275 275 271 273 277 280 280 278 275 270 259 261 263 264 267 271 271 263 260 253 252 251 256 259 260 266 260 264 264 263
308 308 308 308 308 305 299 296 296 289 280 278 277 273 276 280 276 275 275 276 276 277 271 267 263 262 268 261 259 260 262 259 254 254 252 258 259 261 263 255 257 263 263 263
308 308 308 308 304 303 300 296 296 291 282 281 282 283 281 279 280 275 276 273 273 272 265 265 265 263 261 260 260 259 258 255 254 252 249 254 264 263 256 257 260 261 263 263
307 307 306 305 304 304 300 292 294 294 287 281 284 286 287 287 286 282 281 274 274 273 266 264 265 264 257 257 260 263 259 259 258 255 254 259 264 262 262 262 262 264 263 265
307 306 305 303 303 302 300 293 290 286 284 280 279 279 283 286 285 287 281 277 279 276 274 268 267 264 269 260 262 263 264 265 263 263 262 263 263 265 265 263 263 265 265 265
306 304 303 302 301 300 297 288 287 289 284 276 275 283 280 283 282 283 283 284 281 280 275 269 269 267 272 264 263 261 262 264 262 263 264 265 265 265 265 265 266 265 265 265
304 302 301 299 298 296 290 290 290 291 281 267 274 280 281 279 278 278 280 279 278 275 267 270 264 271 269 265 263 259 263 260 259 259 263 263 264 266 267 265 265 266 265 264
302 300 298 296 296 295 286 284 290 290 289 281 268 278 279 277 276 278 277 278 276 271 269 267 270 269 268 260 257 261 263 265 265 262 265 265 267 267 267 265 266 266 265 264
299 298 296 297 295 287 282 280 287 290 288 279 270 267 274 274 276 274 274 275 273 273 268 267 265 263 264 259 255 260 262 263 265 265 265 263 265 263 266 266 266 267 266 265
297 294 296 296 295 292 284 284 287 286 284 279 264 263 268 272 270 267 267 266 268 267 268 266 262 262 261 255 259 260 261 262 263 262 264 265 266 265 265 266 265 264 264 264
295 295 294 286 282 279 282 291 286 278 277 264 259 255 259 269 266 266 264 262 260 266 263 262 262 256 252 256 257 258 260 259 259 262 263 264 263 263 264 264 263 262 262 262
294 286 281 273 280 290 288 276 271 266 262 261 257 257 259 263 261 259 257 252 256 257 261 261 254 254 259 259 260 259 259 260 260 258 258 260 261 262 262 262 263 263 263 263
281 273 271 280 284 278 268 261 261 257 256 259 257 257 256 263 256 254 255 252 255 258 260 255 251 251 256 259 258 259 260 260 260 260 261 261 261 261 262 262 263 264 264 263
283 281 280 275 267 262 262 251 257 257 255 257 254 257 257 258 262 255 258 256 261 255 261 253 249 255 257 257 257 259 259 259 259 260 259 261 261 261 262 263 263 263 264 265
281 274 268 267 261 260 256 251 254 254 257 253 256 255 253 258 260 256 255 257 257 262 253 250 252 255 257 257 258 258 259 259 259 259 260 260 261 262 262 262 264 264 264 264
271 269 263 260 258 258 257 256 254 257 253 257 257 251 253 255 256 257 253 256 257 251 246 247 251 253 255 257 258 257 257 258 258 258 259 259 260 260 262 263 264 264 263 264
267 268 260 260 262 259 254 254 255 254 250 252 251 254 254 254 253 252 252 248 244 247 247 250 254 253 251 254 253 254 255 257 258 258 258 258 259 260 261 263 263 264 264 264
265 261 262 263 261 256 256 251 252 254 253 252 254 248 249 247 245 245 242 241 241 245 246 251 255 252 247 252 252 255 254 257 257 257 258 258 258 260 261 262 263 263 264 263
262 259 262 260 258 256 257 256 256 256 254 249 247 245 246 247 243 242 244 242 247 249 253 254 250 249 250 252 255 253 255 257 256 256 257 257 259 261 260 260 262 263 264 264